Flag for U.S.A. Weather past 2 weeks in Rockford, Illinois, U.S.A.

Now
17 °F

Passing clouds.


Feels Like: 7 °F
Forecast: 15 / 27 °F
Wind: 8 mph from North

Location: Greater Rockford Airport

Current Time: Jan 25, 2015 at 11:33:12 PM

Latest Report: Jan 25, 2015 at 10:54 PM


Visibility: 10 mi

Pressure: 30.06 "Hg

Humidity: 74%

Dew point: 10 °F

Location of RockfordLocation

Historic Weather in Rockford — Graph

°F

Rockford temperature yesterday

Maximum temperature yesterday: 38 °F (at 11:54 AM)
Minimum temperature yesterday: 27 °F (at 1:54 AM)
Average temperature yesterday: 32 °F

Past Weeks' High & Low Weather Summary

 TemperatureHumidityPressure
High41 °F (Jan 17, 1:54 PM)92% (Jan 16, 8:54 AM)30.80 "Hg (Jan 16, 8:54 AM)
Low-4 °F (Jan 14, 1:54 AM)49% (Jan 11, 11:54 AM)29.60 "Hg (Jan 17, 1:54 PM)
Average26 °F76%30.12 "Hg
* Reported Jan 10 9:54 PM — Jan 25 9:54 PM, Rockford, Weather by CustomWeather, © 2014

Note: Actual official high and low records may vary slightly from our data, if they occured in-between our weather recording intervals... More about our weather records

Advertising

Rockford weather history for previous 24 hours

 ConditionsComfort  
Time TempWeatherWind HumidityBarometerVisibility
9:54 PM
Jan 25
19 °FClear.13 mph68%30.07 "Hg10 mi
8:54 PM19 °FClear.13 mph68%30.07 "Hg10 mi
7:54 PM21 °FClear.12 mph62%30.07 "Hg10 mi
6:54 PM22 °FClear.13 mph62%30.06 "Hg10 mi
5:54 PM24 °FPassing clouds.17 mph60%30.03 "Hg10 mi
4:54 PM26 °FPartly sunny.16 mph57%30.00 "Hg10 mi
3:54 PM26 °FPartly sunny.18 mph57%29.96 "Hg10 mi
2:54 PM27 °FPartly sunny.18 mph58%29.94 "Hg10 mi
1:54 PM28 °FOvercast.22 mph61%29.91 "Hg10 mi
12:54 PM29 °FScattered clouds.23 mph64%29.89 "Hg10 mi
12:03 PM28 °FMostly cloudy.21 mph69%29.86 "Hg9 mi
11:54 AM27 °FLight snow. Ice fog.22 mph72%29.88 "Hg1 mi
10:54 AM28 °FLight snow. Ice fog.24 mph75%29.88 "Hg1 mi
9:54 AM28 °FLight snow. Ice fog.18 mph78%29.85 "Hg1 mi
8:54 AM28 °FLight snow. Ice fog.22 mph81%29.82 "Hg1 mi
7:54 AM29 °FLight snow. Ice fog.22 mph85%29.79 "Hg2 mi
6:54 AM30 °FLight snow. Mostly cloudy.17 mph82%29.77 "Hg4 mi
5:54 AM31 °FOvercast.15 mph79%29.75 "Hg10 mi
4:54 AM32 °FLow clouds.25 mph85%29.71 "Hg10 mi
3:54 AM33 °FLow clouds.17 mph85%29.71 "Hg9 mi
2:54 AM34 °FOvercast.12 mph82%29.69 "Hg9 mi
1:54 AM33 °FPassing clouds.5 mph85%29.69 "Hg8 mi
12:54 AM33 °FOvercast.12 mph85%29.67 "Hg9 mi
11:54 PM
Jan 24
33 °FOvercast.10 mph85%29.68 "Hg8 mi
Weather by CustomWeather, © 2014

See weather overviewHow to use our weather pages